Location: *
(49.0575°N, 3.2794°E)
Time: 05:50:39
(UTC+00:00)

Daily predictions for brighter satellites

Satellite Brightness Start Highest point End
(mag) Time Altitude Azimuth Time Altitude Azimuth Time Altitude Azimuth
Cosmos 2263 Rocket 3.8 00:12:47 31° N 00:12:47 31° N 00:16:15 10° NNE
USA 267 3.8 00:09:14 10° ENE 00:15:25 52° NNW 00:15:25 52° NNW
Cosmos 2278 Rocket 4.5 00:19:50 16° ENE 00:19:50 16° ENE 00:21:34 10° NE
Cosmos 1833 Rocket 4.2 00:18:39 10° NNW 00:22:46 31° NNE 00:22:46 31° NNE
ATLAS CENTAUR R/B 4.0 00:50:31 22° N 00:50:31 22° N 00:52:57 10° NNE
Resurs 1-4 Rocket 3.8 00:49:54 10° NNE 00:53:02 27° ENE 00:53:02 27° ENE
ATLAS 5 CENTAUR R/B 4.0 01:10:13 19° ENE 01:10:13 19° ENE 01:11:51 10° NE
CZ-2D R/B 3.3 01:11:32 10° NNE 01:15:14 38° NE 01:15:14 38° NE
Cosmos 2082 Rocket 3.1 01:12:01 10° NNW 01:16:33 47° NNE 01:16:33 47° NNE
Cosmos 1844 Rocket 3.8 01:24:44 38° NNW 01:24:44 38° NNW 01:28:51 10° NNE
Lacrosse 5 3.3 01:26:32 36° NNE 01:26:32 36° NNE 01:30:13 10° NE
Tsikada Rocket 4.2 01:33:33 63° ENE 01:33:33 63° ENE 01:39:13 10° NNE
SJ 16-02 3.3 01:30:52 10° N 01:33:15 26° NNE 01:33:15 26° NNE
MOS 1-B Rocket 4.1 01:32:28 10° NNE 01:39:08 76° ENE 01:39:08 76° ENE
CZ-4C R/B 4.2 01:36:54 10° NW 01:39:37 25° WNW 01:39:37 25° WNW
SL-16 R/B 3.0 01:46:31 48° NW 01:46:31 48° NW 01:51:05 10° NNW
Lacrosse 5 rocket 3.3 01:56:02 28° NNE 01:56:02 28° NNE 01:59:15 10° ENE
USA 267 4.1 01:51:46 10° ENE 01:57:55 45° N 02:02:44 17° WNW
Cosmos 2278 Rocket 2.4 02:01:42 68° N 02:01:42 68° N 02:06:46 10° NNE
IRS-P3 4.3 01:58:55 10° NNE 02:03:58 68° ENE 02:03:58 68° ENE
Cosmos 1634 Rocket 3.9 01:57:56 10° N 02:04:18 83° E 02:04:53 74° SSE
Cosmos 1833 Rocket 4.4 02:02:28 10° NW 02:04:24 22° NW 02:04:24 22° NW
SL-08 R/B 4.2 02:14:00 43° NNW 02:14:00 43° NNW 02:17:14 10° NNW
Cosmos 1328 Rocket 4.5 02:13:56 46° NNE 02:13:56 46° NNE 02:17:05 10° NNE
ARIANE 5 R/B 3.0 02:07:48 10° NNE 02:12:51 52° E 02:13:12 51° ESE
Cosmos 1151 Rocket 3.9 02:15:26 47° NE 02:15:26 47° NE 02:18:39 10° NNE
AQUA 4.5 02:11:04 10° N 02:14:40 49° NNW 02:14:40 49° NNW
Cosmos 1937 Rocket 4.1 02:15:46 10° NNW 02:19:29 47° NNW 02:19:29 47° NNW
BREEZE-M DEB (TANK) 3.8 02:22:43 54° S 02:23:14 55° SSE 02:36:31 10° E
Cosmos 1763 Rocket 3.5 02:24:48 74° SE 02:24:57 75° ESE 02:30:17 10° NNE
Cosmos 468 Rocket 3.9 02:25:46 85° NNW 02:25:46 85° NNW 02:31:03 10° NNE
Cosmos 1933 Rocket 4.0 02:21:25 10° N 02:25:12 59° NNE 02:25:12 59° NNE
SME Rocket 3.9 02:18:27 10° NNE 02:26:39 78° WNW 02:27:31 66° SW
ATLAS CENTAUR R/B 4.3 02:27:07 10° NW 02:29:22 13° N 02:31:34 10° NNE
ADEOS II 2.2 02:24:15 10° NNE 02:29:31 70° ESE 02:30:14 61° SSE
CZ-2D R/B 4.3 02:25:55 10° NNE 02:29:44 43° E 02:29:44 43° E
Cosmos 540 Rocket 4.4 02:30:44 35° SE 02:32:02 42° ESE 02:36:53 10° NE
Cosmos 1933 4.0 02:34:12 51° E 02:34:12 51° E 02:37:54 10° NNE
Cosmos 1515 Rocket 3.7 02:34:37 70° NE 02:34:37 70° NE 02:38:40 10° NNE
Resurs 1-4 Rocket 2.8 02:29:38 10° N 02:34:06 40° NW 02:34:06 40° NW
Cosmos 1814 Rocket 4.2 02:40:08 51° SSE 02:41:08 62° ESE 02:46:15 10° NNE
CBERS-1 4.4 02:37:30 10° N 02:42:09 47° WNW 02:42:09 47° WNW
Cosmos 1943 Rocket 3.8 02:39:34 15° SSE 02:43:01 27° ESE 02:47:36 10° NE
CZ-2C R/B 3.6 02:40:06 10° NNE 02:44:00 47° E 02:44:24 45° ESE
SeaSat 1 4.1 02:42:21 10° NE 02:46:33 27° ESE 02:49:26 16° SSE
NPP 4.4 02:42:23 10° N 02:47:13 35° WNW 02:47:13 35° WNW
Cosmos 2150 Rocket 4.1 02:43:26 10° NNW 02:48:56 83° ENE 02:54:24 10° SSE
ATLAS 5 CENTAUR R/B 2.4 02:51:45 41° NW 02:52:05 41° NW 02:56:52 10° NE
NOSS 3-3 (A) 4.5 02:47:36 10° NW 02:55:00 86° NE 03:03:14 10° SE
NOSS 3-3 (C) 4.5 02:47:42 10° NW 02:55:07 85° NE 03:03:20 10° SE
CZ-2D R/B 3.2 02:52:00 10° N 02:56:32 29° WNW 02:56:33 29° WNW
Cosmos 2208 Rocket 3.9 02:55:52 59° SW 02:56:50 75° WNW 03:02:09 10° NNE
Unknown 4.1 02:57:56 43° ENE 02:57:56 43° ENE 03:00:15 10° ENE
CZ-4B R/B 3.4 02:59:19 21° NNW 02:59:19 21° NNW 03:00:40 10° NNW
BREEZE-M DEB (TANK) 4.5 02:53:12 32° SW 02:58:44 53° SSE 03:03:31 10° E
Cosmos 372 Rocket 3.9 02:55:15 10° NNW 03:00:32 89° ENE 03:05:44 10° SSE
Cosmos 2082 Rocket 3.9 02:56:35 10° NW 02:58:19 18° WNW 02:58:19 18° WNW
Spot 4 Rocket 3.9 02:56:43 10° NNE 03:01:53 76° WNW 03:03:12 51° SW
Cosmos 1869 Rocket 3.9 02:58:21 10° N 03:02:51 66° E 03:06:55 12° SSE
Cosmos 2298 Rocket 3.9 02:57:41 10° NNW 03:03:01 72° WSW 03:08:18 10° SSE
BREEZE-M DEB (TANK) 4.3 03:01:48 39° W 03:03:56 75° SSW 03:20:07 10° ESE
USA 215 4.4 02:58:20 10° ENE 03:04:11 34° SE 03:08:19 18° S
Cosmos 2297 3.6 03:03:04 49° SW 03:04:37 74° WNW 03:10:21 10° NNE
Falcon 9 debris 3.7 03:06:56 51° ESE 03:06:56 51° ESE 03:10:00 10° ENE
SL-4 R/B 2.0 03:08:45 54° NNW 03:08:57 55° N 03:12:27 10° E
Lacrosse 5 3.3 03:05:44 16° NW 03:09:20 34° N 03:13:59 10° ENE
NOSS 3-2 (A) 3.7 03:08:36 31° SSW 03:11:26 62° SE 03:17:55 10° NE
Cosmos 2228 Rocket 3.0 03:10:44 56° SW 03:11:29 68° WNW 03:16:00 10° N
IRS-1D 4.4 03:07:09 10° N 03:11:54 34° WNW 03:12:35 33° W
Cosmos 841 Rocket 3.4 03:10:34 46° SW 03:12:05 76° WNW 03:17:19 10° NNE
NOSS 3-2 (C) 4.3 03:08:30 20° S 03:12:09 43° ESE 03:18:16 10° NE
SJ 16-02 3.6 03:09:44 10° NW 03:10:11 12° NW 03:10:11 12° NW
deb Chang Zheng 4 4.4 03:09:38 10° N 03:13:31 34° WNW 03:13:31 34° WNW
IRIDIUM 104 4.2 03:11:31 34° SSW 03:13:49 78° W 03:19:04 10° N
Cosmos 1356 Rocket 4.5 03:16:40 30° NW 03:16:40 30° NW 03:19:52 10° N
Unknown 3.4 03:16:35 58° SSE 03:16:41 59° SSE 03:20:11 10° ENE
Cosmos 1606 2.6 03:18:32 63° WSW 03:18:53 68° W 03:22:47 10° N
Unknown 3.5 03:19:25 45° NNE 03:19:25 45° NNE 03:21:51 10° ENE
Meteor 1-20 Rocket 4.0 03:14:58 10° NNW 03:20:26 73° W 03:25:55 10° S
IRIDIUM 114 4.3 03:20:39 33° SSW 03:22:59 65° W 03:28:12 10° N
ADEOS 4.1 03:17:59 10° NNE 03:23:09 56° E 03:28:17 10° S
Cosmos 2084 3.5 03:22:16 47° SW 03:23:33 84° NW 03:28:01 10° NE
ATLAS 3B R/B 3.6 03:18:38 12° S 03:24:16 41° ESE 03:30:22 10° NE
Cosmos 2369 Rocket 2.9 03:20:01 15° S 03:24:35 51° ESE 03:30:05 10° NE
PSLV R/B 4.0 03:24:25 10° SSE 03:28:35 79° ENE 03:32:44 10° NNW
Unknown 4.3 03:28:08 32° S 03:29:06 38° SE 03:32:36 10° ENE
Cosmos 1782 2.9 03:27:49 22° S 03:30:13 72° E 03:34:11 10° NNE
ISS -1.8 03:32:39 18° SSE 03:32:39 18° SSE 03:33:49 10° SSE
IRIDIUM 103 4.4 03:29:47 30° SW 03:32:10 55° W 03:37:19 10° N
Lacrosse 5 rocket 1.6 03:31:43 14° NW 03:35:12 70° NNE 03:39:36 10° ESE
USA 267 3.5 03:33:58 10° ESE 03:40:27 69° NNE 03:46:58 10° NW
BREEZE-M DEB (TANK) 4.0 03:28:38 10° W 03:41:38 88° N 03:45:24 10° E
Cosmos 1400 Rocket 4.0 03:38:24 10° SSE 03:42:06 42° E 03:45:48 10° NNE
Spot 2 4.2 03:38:50 10° NNE 03:43:39 80° WNW 03:47:04 18° SSW
FALCON 9 DEB 3.1 03:43:23 41° WSW 03:44:30 89° ESE 03:48:03 10° ENE
Iridium 4 Rocket 3.5 03:40:19 10° S 03:44:58 68° E 03:49:19 10° N
Cosmos 1602 3.6 03:41:30 10° NNW 03:45:26 73° W 03:49:21 10° S
Cosmos 2278 Rocket 3.9 03:43:32 15° WNW 03:46:08 19° NW 03:50:10 10° N
Cosmos 2344 3.6 03:43:01 20° SW 03:48:34 87° NW 03:57:06 10° NE
Cosmos 1461 2.7 03:45:01 10° NW 03:49:03 85° SW 03:53:10 10° SE
ARIANE 5 R/B 3.7 03:47:25 10° N 03:51:40 26° WNW 03:53:32 21° W
Meteor 1-28 Rocket 4.0 03:52:13 28° W 03:52:21 28° W 03:55:40 10° NNW
Unknown 3.1 03:55:32 30° W 03:57:05 74° NNW 04:00:33 10° ENE
Meteor 1-14 Rocket 4.3 03:51:48 10° NNW 03:57:08 49° W 04:02:26 10° SSW
Cosmos 1092 Rocket 3.9 03:53:34 10° SSW 03:59:42 81° W 04:05:54 10° N
Cosmos 1812 4.5 03:56:31 10° SSE 04:00:02 34° E 04:03:33 10° NNE
Unknown 4.2 04:00:46 18° SSW 04:03:19 46° SE 04:07:04 10° ENE
IDEFIX/ARIANE 42P 2.5 03:58:33 10° NNE 04:03:50 78° WNW 04:09:06 10° SSW
Cosmos 836 Rocket 4.4 04:01:16 11° SSW 04:06:23 80° WNW 04:11:38 10° NNE
Meteor 1-31 Rocket 4.1 04:03:23 10° NNE 04:07:09 42° E 04:10:52 10° S
ADEOS II 3.5 04:04:51 10° N 04:08:43 21° WNW 04:11:11 16° W
CENTAUR R/B 2.8 04:03:49 10° SSW 04:09:48 71° SE 04:16:53 10° NE
Cosmos 1707 Rocket 3.7 04:05:47 10° SSW 04:10:09 57° WNW 04:14:32 10° N
ATLAS CENTAUR R/B 4.3 04:07:47 10° NNW 04:10:17 14° NNE 04:12:42 10° NE
Cosmos 540 Rocket 4.3 04:10:35 17° WSW 04:13:45 32° NW 04:18:24 10° N
Cosmos 1346 Rocket 3.9 04:09:51 10° N 04:13:52 51° ENE 04:17:51 10° SSE
Cosmos 44 4.4 04:09:58 10° S 04:14:45 43° ESE 04:19:19 10° NE
USA 238 DEB 3.9 04:09:41 16° WSW 04:15:07 58° NW 04:22:02 10° NE
USA 238 3.9 04:09:47 16° WSW 04:15:14 58° NW 04:22:10 10° NE
BREEZE-M DEB (TANK) 3.3 04:12:41 14° SW 04:16:48 46° SSE 04:19:18 10° E
Unknown 3.7 04:14:40 16° SW 04:17:35 64° SSE 04:21:23 10° ENE
Cosmos 1125 Rocket 4.0 04:12:58 10° NW 04:17:49 36° WSW 04:22:38 10° SSW
H-2A R/B 2.3 04:14:02 10° N 04:17:53 61° WNW 04:21:39 10° SSW
PAYLOAD A 4.0 04:13:10 10° NNE 04:18:03 80° ESE 04:22:45 10° SSW
CZ-2C R/B 4.4 04:15:14 10° NNW 04:18:07 19° WNW 04:19:49 15° W
Unknown 3.3 04:18:04 17° W 04:20:36 65° NNW 04:24:07 10° ENE
Cosmos 1733 Rocket 3.1 04:16:30 10° NNW 04:20:55 63° W 04:25:19 10° S
USA 81 4.0 04:17:52 10° S 04:23:09 84° W 04:28:29 10° N
SeaSat 1 2.7 04:19:29 10° NNE 04:24:18 53° NW 04:29:06 10° SW
PSLV R/B 4.0 04:20:33 10° N 04:24:43 43° WNW 04:28:51 10° SW
Meteor 1-5 Rocket 4.1 04:19:24 10° NNW 04:24:47 76° W 04:30:18 10° S
Cosmos 2263 4.2 04:19:18 10° SSW 04:24:56 81° WNW 04:30:35 10° NNE
Cosmos 1943 Rocket 2.4 04:21:08 11° SW 04:26:25 55° NW 04:31:54 10° NNE
Cosmos 2084 Rocket 4.3 04:22:15 10° NW 04:26:38 55° NE 04:30:55 10° ESE
COSMOS 2487 2.8 04:29:03 10° NW 04:32:20 40° WSW 04:35:37 10° S
Unknown 3.9 04:30:04 11° WNW 04:33:03 40° N 04:36:07 10° ENE
CZ-2C R/B 2.4 04:29:02 10° NNE 04:33:52 89° ESE 04:38:50 10° SSW
Unknown 4.5 04:31:01 10° SW 04:34:58 46° SE 04:38:57 10° ENE
Cosmos 1484 Rocket 4.5 04:32:43 10° NNE 04:36:15 36° E 04:39:43 10° SSE
Aureole 2 Rocket 4.3 04:34:16 10° SSE 04:36:33 24° ESE 04:38:48 10° NE
ATLAS 5 CENTAUR R/B 3.9 04:34:45 10° NW 04:38:07 18° N 04:41:48 10° NNE
Unknown 4.4 04:34:16 10° SW 04:38:15 48° SE 04:42:15 10° ENE
Timation 2 Rocket 3.8 04:33:26 10° NNW 04:39:31 75° WSW 04:45:27 10° SSE
Starlink (trailer) 4.4 04:35:55 10° SW 04:39:55 49° SE 04:43:56 10° ENE
Cosmos 783 Rocket 4.5 04:36:06 10° SSW 04:41:18 83° WNW 04:46:34 10° NNE
Cosmos 1553 Rocket 4.0 04:35:04 10° NNW 04:41:23 74° W 04:47:33 10° S
Unknown 4.3 04:37:33 10° SW 04:41:34 50° SSE 04:45:36 10° ENE
Cosmos 1666 3.6 04:39:13 10° N 04:42:54 53° ENE 04:46:35 10° SSE
Unknown 4.3 04:39:13 10° SW 04:43:14 52° SSE 04:47:16 10° ENE
Falcon 9 debris 3.7 04:40:17 10° W 04:43:41 49° NNW 04:47:05 10° ENE
Cosmos 220 Rocket 4.3 04:39:31 10° SW 04:43:43 48° WNW 04:47:54 10° NNE
Helios 1A Rocket 4.3 04:43:33 10° NNE 04:47:27 44° E 04:51:20 10° S
USA 215 3.3 04:41:06 10° NE 04:47:40 88° NNW 04:54:14 10° WSW
SKYMED 2 3.8 04:44:04 10° SSE 04:48:24 76° ENE 04:52:45 10° N
Cosmos 2242 Rocket 3.6 04:44:00 10° SSW 04:48:33 76° W 04:53:06 10° N
Meteor 1-27 Rocket 3.8 04:42:43 10° SSW 04:48:38 81° WNW 04:54:29 10° N
SL-4 R/B 1.6 04:45:09 10° WNW 04:48:38 72° SSW 04:52:19 10° ESE
Cosmos 1782 Rocket 4.2 04:44:44 10° N 04:49:05 61° ENE 04:53:24 10° SSE
Unknown 4.1 04:45:49 10° SW 04:49:52 57° SSE 04:53:57 10° ENE
Unknown 4.1 04:47:25 10° SW 04:51:29 58° SSE 04:55:34 10° ENE
Unknown 4.1 04:48:19 10° SW 04:52:23 59° SSE 04:56:29 10° ENE
Lacrosse 5 2.3 04:47:56 10° NW 04:53:01 64° NNE 04:58:04 10° ESE
Meteor PRIRODA 3.6 04:49:37 10° NNE 04:53:19 87° WNW 04:57:00 10° SSW
Cosmos 2219 4.4 04:48:04 10° NNW 04:53:35 47° NE 04:59:02 10° SE
Unknown 3.8 04:50:33 10° W 04:54:00 48° N 04:57:28 10° ENE
Unknown 3.9 04:51:23 10° WNW 04:54:04 35° N 04:56:47 10° ENE
Unknown 4.0 04:50:46 10° SW 04:54:51 61° SSE 04:58:57 10° ENE
Cosmos 1315 Rocket 2.9 04:50:57 10° SSW 04:55:04 75° WNW 04:59:14 10° N
Meteor 1-11 Rocket 3.9 04:50:42 10° NNW 04:56:08 49° W 05:01:27 10° SSW
Cosmos 773 Rocket 4.2 04:50:59 10° SSW 04:56:10 76° ESE 05:01:20 10° NNE
ALOS 4.1 04:51:57 10° NNE 04:56:18 37° E 05:00:37 10° SSE
